Location: Unspecified
(0.0000°N, 0.0000°E)
Time: 06:24:03
(UTC+00:00)

Hubble Space Telescope - Pass Details

Date: 20 January 2018
Orbit: 537 x 541 km, 28.5° (Epoch: 17 July)

Event Time Altitude Azimuth Distance (km) Brightness Sun altitude
Exits shadow 04:24:48 48° 53° (NE) 701 1.4 -24.8°
Drops below altitude 10° 04:28:25 10° 107° (ESE) 1,789 4.5 -24.0°
Sets 04:30:43 0° 112° (ESE) 2,681 5.8 -23.4°
